Location: Paris
(48.6709°N, 2.3750°E)
Time: 18:51:21
(UTC+02:00)

CUBESAT XI-V - Pass Details

Date: 03 July 2022
Orbit: 667 x 690 km, 98.1° (Epoch: 08 August)

Event Time Altitude Azimuth Distance (km) Brightness Sun altitude
Exits shadow 02:52:53 14° 138° (SE) 1,872 ? -17.2°
Maximum altitude 02:56:39 45° 69° (ENE) 920 ? -17.0°
Drops below altitude 10° 03:01:01 10° 357° (N) 2,109 ? -16.8°
Sets 03:03:19 0° 352° (N) 3,026 ? -16.7°
